TimeHST,TemperatureF,Dew PointF,Humidity,Sea Level PressureIn,VisibilityMPH,Wind Direction,Wind SpeedMPH,Gust SpeedMPH,PrecipitationIn,Events,Conditions,WindDirDegrees,DateUTC
12:56 AM,71.1,54.0,55,30.08,10.0,East,5.8,-,N/A,,Clear,90,2012-11-10 10:56:00
1:56 AM,71.1,71.1,100,30.06,10.0,ENE,3.5,-,N/A,,Clear,70,2012-11-10 11:56:00
2:56 AM,71.1,55.0,57,30.06,10.0,East,4.6,-,N/A,,Clear,100,2012-11-10 12:56:00
3:56 AM,72.0,50.0,46,30.06,10.0,Calm,Calm,-,N/A,,Mostly Cloudy,0,2012-11-10 13:56:00
4:56 AM,70.0,36.0,29,30.06,10.0,Calm,Calm,-,N/A,,Clear,0,2012-11-10 14:56:00
5:56 AM,69.1,50.0,51,30.06,10.0,Calm,Calm,-,N/A,,Clear,0,2012-11-10 15:56:00
6:56 AM,69.1,42.1,38,30.07,10.0,East,3.5,-,N/A,,Clear,80,2012-11-10 16:56:00
7:56 AM,73.9,43.0,33,30.08,10.0,ENE,3.5,-,N/A,,Clear,60,2012-11-10 17:56:00
8:56 AM,79.0,-9999,N/A,30.10,10.0,Calm,Calm,-,N/A,,Scattered Clouds,0,2012-11-10 18:56:00
9:56 AM,81.0,-9999,N/A,30.09,10.0,SW,6.9,-,N/A,,Clear,230,2012-11-10 19:56:00
10:56 AM,82.9,-9999,N/A,30.08,10.0,WNW,9.2,-,N/A,,Clear,290,2012-11-10 20:56:00
11:56 AM,82.9,-9999,N/A,30.05,10.0,West,11.5,-,N/A,,Partly Cloudy,280,2012-11-10 21:56:00
12:56 PM,82.9,-9999,N/A,30.02,10.0,WSW,6.9,-,N/A,,Clear,250,2012-11-10 22:56:00
1:56 PM,84.9,57.9,40,30.00,10.0,WNW,9.2,-,N/A,,Partly Cloudy,290,2012-11-10 23:56:00
2:56 PM,84.0,57.9,41,29.99,10.0,NW,11.5,-,N/A,,Clear,320,2012-11-11 00:56:00
3:56 PM,84.9,57.0,38,29.99,10.0,NNW,8.1,-,N/A,,Clear,340,2012-11-11 01:56:00
4:56 PM,82.9,57.0,41,29.99,10.0,Variable,3.5,-,N/A,,Partly Cloudy,0,2012-11-11 02:56:00
5:56 PM,81.0,59.0,47,30.00,10.0,NNE,6.9,-,N/A,,Clear,30,2012-11-11 03:56:00
6:56 PM,79.0,63.0,58,30.02,10.0,North,11.5,-,N/A,,Mostly Cloudy,10,2012-11-11 04:56:00
7:56 PM,75.9,66.9,74,30.04,10.0,NE,3.5,-,N/A,,Clear,40,2012-11-11 05:56:00
8:56 PM,75.0,73.9,96,30.06,10.0,NNE,3.5,-,N/A,,Clear,30,2012-11-11 06:56:00
9:56 PM,71.1,-9999,N/A,30.06,10.0,East,5.8,-,N/A,,Clear,90,2012-11-11 07:56:00
10:56 PM,72.0,-9999,N/A,30.06,10.0,Calm,Calm,-,N/A,,Clear,0,2012-11-11 08:56:00
11:56 PM,68.0,-9999,N/A,30.05,10.0,ENE,4.6,-,N/A,,Clear,60,2012-11-11 09:56:00